M0ZPG Weather Reports


time (UTC)temp
C
wind
direction
speed
KPH
gust
KPH
rain 1hr
cm
rain 24hr
cm
rain mn
cm
humidity
%
barometer
mb
20260831025405 15 233 1.6 11.3 0.00 0.10 0.03 89 1005.0
20260831024507 15 217 3.2 11.3 0.00 0.10 0.03 89 1004.7
20260831023605 15 218 1.6 9.7 0.00 0.10 0.03 89 1004.6
20260831022703 15 215 1.6 12.9 0.00 0.10 0.03 89 1004.5
20260831022015 15 197 3.2 12.9 0.00 0.10 0.03 90 1004.4
20260831020903 15 248 1.6 6.4 0.00 0.10 0.03 90 1004.3
20260831020215 15 211 1.6 6.4 0.00 0.10 0.03 90 1004.3
20260831015616 15 233 3.2 9.7 0.00 0.10 0.03 90 1004.2
20260831014504 15 198 1.6 9.7 0.00 0.10 0.03 90 1004.3
20260831013605 15 212 3.2 9.7 0.00 0.10 0.03 90 1004.3
20260831012703 15 191 1.6 9.7 0.00 0.10 0.03 91 1004.4
20260831012016 15 166 3.2 11.3 0.00 0.10 0.03 90 1004.2
20260831010903 15 147 1.6 11.3 0.03 0.10 0.03 90 1004.5
20260831010005 15 149 1.6 11.3 0.03 0.10 0.03 90 1004.5
20260831005406 15 155 1.6 8.0 0.03 0.10 0.03 90 1004.4
20260831004506 15 145 1.6 8.0 0.03 0.10 0.03 90 1004.5
20260831003603 15 158 3.2 12.9 0.03 0.10 0.03 90 1004.6
20260831002705 16 158 1.6 16.1 0.03 0.10 0.03 89 1004.6
20260831001805 16 157 1.6 16.1 0.03 0.10 0.03 89 1004.5
20260831000904 16 151 1.6 9.7 0.00 0.08 0.00 88 1004.7
20260831000005 15 176 1.6 8.0 0.00 0.08 0.00 89 1005.0
20260830235405 15 180 0.0 6.4 0.00 0.08 0.00 89 1004.9
20260830234505 15 182 1.6 11.3 0.00 0.08 0.00 89 1005.0
20260830233605 15 167 1.6 9.7 0.00 0.08 0.00 89 1005.1
20260830232705 15 175 1.6 8.0 0.00 0.08 0.00 88 1005.2
20260830231805 15 181 0.0 3.2 0.00 0.08 0.00 87 1005.2
20260830230903 16 183 0.0 4.8 0.00 0.08 0.00 87 1005.4
20260830230017 16 173 0.0 8.0 0.00 0.08 0.00 87 1005.5
20260830225405 16 164 1.6 9.7 0.00 0.08 0.08 87 1005.5
20260830224503 16 197 1.6 11.3 0.00 0.08 0.08 87 1005.6
20260830223604 16 187 1.6 11.3 0.00 0.08 0.08 87 1005.7
20260830222705 16 165 1.6 8.0 0.00 0.08 0.08 87 1005.9
20260830221803 16 190 1.6 4.8 0.00 0.08 0.08 86 1006.0
20260830220903 16 199 1.6 4.8 0.00 0.08 0.08 86 1006.0
20260830220004 16 207 0.0 6.4 0.00 0.08 0.08 86 1006.0
20260830215405 16 198 1.6 8.0 0.00 0.08 0.08 85 1006.0
20260830214503 16 227 3.2 12.9 0.00 0.08 0.08 85 1006.2
20260830213603 16 220 3.2 12.9 0.08 0.08 0.08 85 1006.1
20260830212703 16 216 3.2 12.9 0.08 0.08 0.08 85 1005.9
20260830211803 16 184 1.6 12.9 0.08 0.08 0.08 86 1005.8
20260830210903 17 201 3.2 11.3 0.08 0.08 0.08 87 1005.7
20260830210005 17 157 3.2 11.3 0.08 0.08 0.08 87 1005.9
20260830205405 17 149 3.2 11.3 0.08 0.08 0.08 86 1006.0
20260830204508 17 164 3.2 14.5 0.08 0.08 0.08 86 1006.0
20260830203603 17 157 1.6 8.0 0.00 0.00 0.00 83 1005.9
20260830202704 17 144 0.0 3.2 0.00 0.00 0.00 82 1005.8
20260830201803 18 145 1.6 3.2 0.00 0.00 0.00 82 1006.0
20260830200905 18 133 1.6 6.4 0.00 0.00 0.00 81 1005.9
20260830200003 18 141 1.6 8.0 0.00 0.00 0.00 80 1006.0
20260830195615 18 146 1.6 8.0 0.00 0.00 0.00 79 1006.1
20260830194717 18 175 1.6 11.3 0.00 0.00 0.00 79 1006.2
20260830193605 18 161 1.6 6.4 0.00 0.00 0.00 78 1006.3
20260830192705 18 164 1.6 8.0 0.00 0.00 0.00 78 1006.4
20260830191805 18 137 1.6 9.7 0.00 0.00 0.00 77 1006.5
20260830190905 18 140 1.6 11.3 0.00 0.00 0.00 76 1006.5
20260830190003 18 209 1.6 11.3 0.00 0.00 0.00 75 1006.6
20260830185406 18 191 1.6 8.0 0.00 0.00 0.00 75 1006.7
20260830184713 19 167 1.6 9.7 0.00 0.00 0.00 74 1006.7
20260830183603 19 213 3.2 12.9 0.00 0.00 0.00 74 1006.5
20260830182703 19 145 3.2 14.5 0.00 0.00 0.00 73 1006.7
20260830181806 20 165 3.2 14.5 0.00 0.00 0.00 73 1006.8
20260830180906 20 167 3.2 9.7 0.00 0.00 0.00 72 1006.7
20260830180003 20 169 3.2 12.9 0.00 0.00 0.00 71 1006.9
20260830175405 20 178 3.2 14.5 0.00 0.00 0.00 70 1007.0
20260830174503 20 163 3.2 8.0 0.00 0.00 0.00 69 1007.0
20260830173604 20 158 4.8 17.7 0.00 0.00 0.00 69 1007.0
20260830172703 20 186 3.2 11.3 0.00 0.00 0.00 68 1006.8
20260830172015 20 158 4.8 14.5 0.00 0.00 0.00 67 1006.8
20260830170903 20 218 4.8 17.7 0.00 0.00 0.00 67 1007.0
20260830170003 21 158 4.8 11.3 0.00 0.00 0.00 69 1006.9
20260830165405 21 150 4.8 12.9 0.00 0.00 0.00 68 1007.0
20260830164504 21 181 4.8 16.1 0.00 0.00 0.00 67 1006.9
20260830163606 21 162 4.8 14.5 0.00 0.00 0.00 66 1007.0
20260830162703 22 162 4.8 14.5 0.00 0.00 0.00 64 1007.0
20260830162016 22 173 4.8 16.1 0.00 0.00 0.00 64 1007.0
20260830160905 21 213 4.8 17.7 0.00 0.00 0.00 63 1007.1
20260830160006 21 188 4.8 14.5 0.00 0.00 0.00 62 1007.1
20260830155617 22 212 4.8 14.5 0.00 0.00 0.00 63 1007.2
20260830154503 22 222 3.2 12.9 0.00 0.00 0.00 62 1007.2
20260830153605 22 179 4.8 16.1 0.00 0.00 0.00 62 1007.3
20260830152704 21 203 4.8 12.9 0.00 0.00 0.00 64 1007.3
20260830152017 21 200 4.8 22.5 0.00 0.00 0.00 63 1007.3
20260830150905 21 169 4.8 16.1 0.00 0.00 0.00 64 1007.4
20260830150006 22 173 4.8 17.7 0.00 0.00 0.00 64 1007.5
20260830145405 22 164 4.8 17.7 0.00 0.00 0.00 64 1007.4
20260830144503 22 152 6.4 17.7 0.00 0.00 0.00 64 1007.5
20260830143603 22 172 6.4 19.3 0.00 0.00 0.00 63 1007.7
20260830142705 23 191 4.8 14.5 0.00 0.00 0.00 62 1007.7
20260830141805 23 156 4.8 14.5 0.00 0.00 0.00 64 1007.7
20260830140906 23 163 4.8 17.7 0.00 0.00 0.00 63 1007.7
20260830140217 22 169 4.8 17.7 0.00 0.00 0.00 64 1007.6
20260830135405 22 182 4.8 25.7 0.00 0.00 0.00 67 1007.7
20260830134716 22 147 4.8 14.5 0.00 0.00 0.00 69 1007.9
20260830133604 22 166 4.8 17.7 0.00 0.00 0.00 70 1008.0
20260830132703 21 196 3.2 12.9 0.00 0.00 0.00 72 1008.2
20260830132018 21 173 4.8 11.3 0.00 0.03 0.00 72 1008.4
20260830131115 21 157 4.8 14.5 0.00 0.03 0.00 72 1008.5
20260830130003 21 161 4.8 14.5 0.00 0.03 0.00 72 1008.6
20260830125403 21 164 4.8 14.5 0.00 0.03 0.00 73 1008.7
20260830124505 21 169 3.2 9.7 0.00 0.03 0.00 73 1008.8
20260830123814 21 165 3.2 12.9 0.00 0.03 0.00 72 1008.7
20260830122704 21 173 3.2 12.9 0.00 0.03 0.00 69 1008.6
20260830121803 22 148 3.2 14.5 0.00 0.03 0.00 66 1008.6
20260830120903 22 155 4.8 12.9 0.00 0.03 0.00 64 1008.6
20260830120004 22 159 3.2 12.9 0.00 0.03 0.00 62 1008.6
20260830115403 22 147 3.2 11.3 0.00 0.03 0.00 63 1008.5
20260830114717 22 188 1.6 8.0 0.00 0.03 0.00 61 1008.7
20260830113603 22 188 3.2 14.5 0.00 0.03 0.00 63 1008.7
20260830112917 22 191 3.2 12.9 0.00 0.03 0.00 62 1008.7
20260830111805 22 218 3.2 9.7 0.00 0.03 0.00 65 1008.9
20260830110903 22 177 3.2 9.7 0.00 0.05 0.00 65 1009.0
20260830110004 21 261 3.2 11.3 0.00 0.05 0.00 69 1009.1
20260830105404 21 267 3.2 11.3 0.00 0.05 0.00 67 1009.2
20260830104718 21 227 3.2 14.5 0.00 0.05 0.00 66 1009.2
20260830103605 22 221 3.2 11.3 0.00 0.05 0.00 67 1009.3
20260830102912 22 217 3.2 12.9 0.00 0.10 0.00 66 1009.3
20260830101804 22 169 3.2 14.5 0.00 0.10 0.00 66 1009.3
20260830100905 21 175 1.6 9.7 0.00 0.10 0.00 68 1009.2
20260830100005 21 236 3.2 11.3 0.00 0.13 0.00 68 1009.2
20260830095405 21 242 1.6 11.3 0.00 0.13 0.00 68 1009.5
20260830094505 21 253 3.2 11.3 0.00 0.13 0.00 69 1009.5
20260830093603 21 227 3.2 11.3 0.00 0.13 0.00 70 1009.5
20260830092703 21 240 1.6 6.4 0.00 0.13 0.00 71 1009.5
20260830091803 21 245 1.6 6.4 0.00 0.15 0.00 70 1009.6
20260830090903 20 232 1.6 6.4 0.00 0.15 0.00 71 1009.6
20260830090215 20 245 1.6 6.4 0.00 0.15 0.00 72 1009.7
20260830085403 20 242 1.6 11.3 0.00 0.15 0.00 74 1009.5
20260830084504 20 243 1.6 11.3 0.00 0.15 0.00 75 1009.6
20260830083603 19 237 1.6 11.3 0.00 0.15 0.00 77 1009.6
20260830082705 18 252 1.6 8.0 0.00 0.15 0.00 78 1009.6
20260830081806 18 210 1.6 4.8 0.00 0.15 0.00 80 1009.5
20260830080903 18 248 1.6 11.3 0.00 0.18 0.00 81 1009.4
20260830080003 18 250 1.6 12.9 0.00 0.18 0.00 81 1009.4
20260830075405 18 256 1.6 12.9 0.00 0.20 0.00 82 1009.3
20260830074508 17 222 1.6 4.8 0.00 0.20 0.00 84 1009.1
20260830073605 17 224 1.6 9.7 0.00 0.20 0.00 85 1009.1
20260830072703 17 225 1.6 8.0 0.00 0.20 0.00 86 1009.1
20260830071803 16 197 1.6 4.8 0.00 0.20 0.00 86 1008.9
20260830071114 16 214 1.6 11.3 0.00 0.20 0.00 87 1008.9
20260830070003 16 187 0.0 6.4 0.00 0.20 0.00 88 1008.7
20260830065404 16 184 1.6 8.0 0.00 0.20 0.00 88 1008.6
20260830064505 16 228 1.6 8.0 0.00 0.20 0.00 88 1008.5
20260830063606 16 226 1.6 6.4 0.00 0.20 0.00 88 1008.5
20260830062703 16 222 1.6 4.8 0.00 0.20 0.00 89 1008.4
20260830061803 16 195 0.0 11.3 0.00 0.20 0.00 89 1008.3
20260830060905 16 244 0.0 3.2 0.00 0.20 0.00 90 1008.2
20260830060005 15 248 0.0 3.2 0.00 0.20 0.00 90 1008.2
20260830055619 15 246 0.0 4.8 0.00 0.20 0.00 91 1008.1
20260830054503 15 244 0.0 4.8 0.00 0.20 0.00 90 1008.2
20260830053603 15 220 0.0 4.8 0.00 0.20 0.00 90 1008.1
20260830052705 15 222 0.0 4.8 0.00 0.20 0.00 90 1008.1
20260830051803 15 234 1.6 4.8 0.00 0.20 0.00 90 1008.0
20260830050903 15 251 1.6 4.8 0.00 0.20 0.00 89 1008.0
20260830050003 15 240 0.0 4.8 0.00 0.20 0.00 89 1008.0
20260830045614 15 247 1.6 11.3 0.00 0.20 0.00 89 1007.9
20260830044505 15 222 0.0 4.8 0.00 0.20 0.00 89 1007.8
20260830043605 15 192 0.0 6.4 0.00 0.20 0.00 89 1007.8
20260830042703 16 151 0.0 4.8 0.00 0.20 0.00 89 1007.8
20260830041803 16 237 1.6 11.3 0.00 0.20 0.00 88 1007.7
20260830041116 16 212 1.6 8.0 0.00 0.20 0.00 88 1007.5
20260830040005 16 234 1.6 11.3 0.00 0.20 0.00 88 1007.4
20260830035405 16 224 1.6 11.3 0.00 0.20 0.00 88 1007.4
20260830034505 16 214 1.6 9.7 0.00 0.20 0.00 88 1007.4
20260830033603 16 222 1.6 9.7 0.00 0.20 0.00 88 1007.4
20260830032706 16 243 3.2 11.3 0.00 0.20 0.00 88 1007.2
20260830032014 16 256 3.2 11.3 0.00 0.20 0.00 88 1007.1
20260830030905 16 230 1.6 8.0 0.00 0.20 0.00 88 1007.1
20260830030003 16 252 1.6 11.3 0.00 0.20 0.00 88 1007.0